TAP281 LPPT-FQMA

Flight info

Callsign TAP281
Flight time N/A
Altitude 34000
Route DUZOP DCT MINTA N747 SVL/N0467F350 M744 MGA DCT BERUM UL58 XAVOV UM999 MNA UB730 DIR UA607 USPOK/N0469F370 UA607 XEGMO/N0465F390 UA607 LUB UM215 VLS UG652 GADBA UB529 VMV/N0459F380 UB529 ATUSI ATUSI1B
Aircraft A339/H-SADE1E2E3GHIJ3J5M1P2RWXY/LB2D1

Departure

Time 2026-05-08 08:20
Airport Lisbon Humberto Delgado Airport (LPPT)

Arrival

Time N/A
Airport Maputo Airport (FQMA)
Time Latitude Longitude Altitude Speed Heading
2026-05-08 07:28 38.77011 -9.13626 359 ft 0 kts 258°
2026-05-08 08:04 38.77011 -9.13625 359 ft 1 kts 258°
2026-05-08 08:05 38.77014 -9.13606 358 ft 3 kts 258°
2026-05-08 08:05 38.77018 -9.13582 361 ft 2 kts 258°
2026-05-08 08:05 38.77023 -9.13562 358 ft 3 kts 272°
2026-05-08 08:05 38.77023 -9.13542 359 ft 3 kts 304°
2026-05-08 08:06 38.77015 -9.13526 362 ft 3 kts 338°
2026-05-08 08:06 38.76997 -9.13517 358 ft 3 kts 349°
2026-05-08 08:06 38.76986 -9.13515 361 ft 0 kts 348°
2026-05-08 08:08 38.76987 -9.13515 361 ft 0 kts 348°
2026-05-08 08:08 38.77002 -9.13518 359 ft 5 kts 350°
2026-05-08 08:09 38.77015 -9.13522 362 ft 2 kts 345°
2026-05-08 08:09 38.77039 -9.13527 358 ft 4 kts 353°
2026-05-08 08:09 38.77075 -9.13518 360 ft 6 kts 22°
2026-05-08 08:09 38.77098 -9.13481 352 ft 6 kts 46°
2026-05-08 08:10 38.77140 -9.13464 354 ft 7 kts
2026-05-08 08:10 38.77195 -9.13475 352 ft 10 kts 350°
2026-05-08 08:10 38.77251 -9.13490 361 ft 6 kts 348°
2026-05-08 08:10 38.77293 -9.13467 356 ft 8 kts 47°
2026-05-08 08:11 38.77333 -9.13401 357 ft 11 kts 35°
2026-05-08 08:11 38.77403 -9.13403 352 ft 5 kts 343°
2026-05-08 08:11 38.77453 -9.13414 348 ft 12 kts 350°
2026-05-08 08:11 38.77535 -9.13434 357 ft 12 kts 348°
2026-05-08 08:12 38.77608 -9.13453 356 ft 10 kts 348°
2026-05-08 08:12 38.77668 -9.13470 362 ft 10 kts 348°
2026-05-08 08:12 38.77744 -9.13491 361 ft 12 kts 347°
2026-05-08 08:12 38.77813 -9.13509 365 ft 9 kts 348°
2026-05-08 08:13 38.77893 -9.13531 369 ft 13 kts 348°
2026-05-08 08:13 38.77974 -9.13552 367 ft 11 kts 348°
2026-05-08 08:13 38.78046 -9.13572 375 ft 12 kts 348°
2026-05-08 08:13 38.78139 -9.13597 372 ft 15 kts 348°
2026-05-08 08:14 38.78253 -9.13628 374 ft 16 kts 348°
2026-05-08 08:14 38.78347 -9.13652 377 ft 12 kts 348°
2026-05-08 08:14 38.78415 -9.13671 381 ft 9 kts 347°
2026-05-08 08:14 38.78507 -9.13697 385 ft 15 kts 348°
2026-05-08 08:15 38.78592 -9.13691 386 ft 12 kts 30°
2026-05-08 08:15 38.78629 -9.13599 379 ft 11 kts 74°
2026-05-08 08:15 38.78704 -9.13535 375 ft 19 kts 23°
2026-05-08 08:15 38.78833 -9.13466 367 ft 21 kts 23°
2026-05-08 08:16 38.78976 -9.13389 355 ft 23 kts 22°
2026-05-08 08:16 38.79126 -9.13309 357 ft 23 kts 22°
2026-05-08 08:16 38.79266 -9.13235 358 ft 21 kts 22°
2026-05-08 08:16 38.79393 -9.13167 362 ft 18 kts 22°
2026-05-08 08:17 38.79499 -9.13110 366 ft 15 kts 23°
2026-05-08 08:17 38.79591 -9.13061 367 ft 15 kts 22°
2026-05-08 08:17 38.79694 -9.13007 368 ft 16 kts 22°
2026-05-08 08:17 38.79774 -9.12933 363 ft 10 kts 68°
2026-05-08 08:18 38.79769 -9.12882 364 ft 9 kts 104°
2026-05-08 08:18 38.79736 -9.12791 361 ft 10 kts 119°
2026-05-08 08:18 38.79682 -9.12766 359 ft 8 kts 194°
2026-05-08 08:18 38.79630 -9.12791 364 ft 1 kts 201°
2026-05-08 08:19 38.79614 -9.12800 363 ft 17 kts 202°
2026-05-08 08:19 38.79268 -9.12986 359 ft 88 kts 202°
2026-05-08 08:20 38.78496 -9.13398 370 ft 150 kts 203°
2026-05-08 08:20 38.77379 -9.13997 447 ft 191 kts 203°
2026-05-08 08:20 38.76124 -9.14640 1009 ft 198 kts 202°
2026-05-08 08:20 38.74789 -9.15225 1617 ft 208 kts 197°
2026-05-08 08:21 38.73369 -9.15770 2205 ft 216 kts 197°
2026-05-08 08:21 38.71894 -9.16342 2564 ft 232 kts 201°
2026-05-08 08:21 38.70336 -9.17158 2779 ft 252 kts 204°
2026-05-08 08:21 38.68707 -9.18112 3200 ft 259 kts 206°
2026-05-08 08:22 38.67074 -9.19110 3774 ft 262 kts 207°
2026-05-08 08:22 38.66520 -9.19463 3946 ft 263 kts 207°
2026-05-08 08:22 38.65500 -9.20116 4299 ft 264 kts 207°
2026-05-08 08:22 38.63832 -9.21131 4856 ft 267 kts 202°
2026-05-08 08:23 38.62052 -9.21843 5420 ft 268 kts 196°
2026-05-08 08:23 38.60243 -9.22472 5989 ft 271 kts 195°
2026-05-08 08:23 38.58415 -9.23102 6544 ft 273 kts 196°
2026-05-08 08:23 38.56538 -9.23524 7043 ft 277 kts 179°
2026-05-08 08:24 38.54664 -9.22980 7597 ft 280 kts 155°
2026-05-08 08:24 38.52970 -9.21725 8138 ft 283 kts 148°
2026-05-08 08:24 38.51292 -9.20388 8683 ft 285 kts 148°
2026-05-08 08:24 38.49594 -9.19057 9225 ft 287 kts 149°
2026-05-08 08:25 38.47870 -9.17743 9768 ft 290 kts 150°
2026-05-08 08:25 38.46145 -9.16454 10235 ft 295 kts 150°
2026-05-08 08:25 38.44292 -9.15083 10394 ft 313 kts 150°
2026-05-08 08:25 38.42390 -9.13681 10546 ft 328 kts 150°
2026-05-08 08:26 38.40372 -9.12194 10801 ft 339 kts 150°
2026-05-08 08:26 38.38319 -9.10680 11296 ft 342 kts 150°
2026-05-08 08:26 38.36254 -9.09156 11797 ft 345 kts 150°
2026-05-08 08:26 38.34170 -9.07619 12288 ft 347 kts 150°
2026-05-08 08:27 38.32072 -9.06073 12775 ft 350 kts 150°
2026-05-08 08:27 38.29960 -9.04518 13255 ft 352 kts 150°
2026-05-08 08:27 38.27834 -9.02953 13734 ft 355 kts 150°
2026-05-08 08:27 38.25686 -9.01373 14199 ft 357 kts 150°
2026-05-08 08:28 38.23526 -8.99786 14659 ft 359 kts 150°
2026-05-08 08:28 38.21354 -8.98190 15109 ft 362 kts 150°
2026-05-08 08:28 38.19168 -8.96586 15545 ft 364 kts 150°
2026-05-08 08:28 38.16966 -8.94970 15996 ft 367 kts 150°
2026-05-08 08:29 38.14748 -8.93344 16427 ft 369 kts 150°
2026-05-08 08:29 38.12514 -8.91708 16849 ft 371 kts 150°
2026-05-08 08:29 38.10270 -8.90065 17267 ft 374 kts 150°
2026-05-08 08:29 38.08010 -8.88412 17679 ft 376 kts 150°
2026-05-08 08:30 38.05658 -8.86931 18070 ft 378 kts 157°
2026-05-08 08:30 38.03245 -8.85586 18484 ft 380 kts 156°
2026-05-08 08:30 37.98380 -8.82850 19279 ft 385 kts 156°
2026-05-08 08:31 37.95977 -8.81492 19665 ft 387 kts 156°
2026-05-08 08:31 37.93509 -8.80096 20060 ft 390 kts 156°
2026-05-08 08:31 37.91026 -8.78693 20458 ft 392 kts 156°
2026-05-08 08:31 37.88529 -8.77283 20841 ft 394 kts 156°
2026-05-08 08:32 37.86014 -8.75864 21223 ft 397 kts 156°
2026-05-08 08:32 37.83485 -8.74439 21615 ft 399 kts 156°
2026-05-08 08:32 37.80941 -8.73006 21984 ft 402 kts 156°
2026-05-08 08:32 37.78378 -8.71563 22345 ft 404 kts 156°
2026-05-08 08:33 37.75803 -8.70115 22732 ft 406 kts 156°
2026-05-08 08:33 37.73211 -8.68659 23094 ft 409 kts 156°
2026-05-08 08:33 37.70604 -8.67193 23470 ft 411 kts 156°
2026-05-08 08:33 37.68143 -8.65348 23785 ft 414 kts 142°
2026-05-08 08:34 37.66106 -8.62775 24162 ft 416 kts 128°
2026-05-08 08:34 37.64600 -8.59648 24522 ft 418 kts 117°
2026-05-08 08:34 37.63268 -8.56366 24814 ft 422 kts 117°
2026-05-08 08:34 37.61914 -8.53076 25170 ft 424 kts 117°
2026-05-08 08:35 37.60539 -8.49773 25512 ft 426 kts 118°
2026-05-08 08:35 37.59149 -8.46459 25857 ft 428 kts 118°
2026-05-08 08:35 37.57750 -8.43136 26183 ft 430 kts 118°
2026-05-08 08:35 37.56340 -8.39791 26474 ft 433 kts 118°
2026-05-08 08:36 37.54923 -8.36431 26820 ft 435 kts 118°
2026-05-08 08:36 37.53500 -8.33063 27131 ft 437 kts 118°
2026-05-08 08:36 37.52068 -8.29674 27432 ft 439 kts 118°
2026-05-08 08:36 37.50630 -8.26273 27711 ft 441 kts 118°
2026-05-08 08:37 37.49182 -8.22855 27991 ft 444 kts 118°
2026-05-08 08:37 37.47726 -8.19420 28290 ft 446 kts 118°
2026-05-08 08:37 37.46262 -8.15972 28551 ft 448 kts 118°
2026-05-08 08:37 37.44792 -8.12513 28829 ft 449 kts 118°
2026-05-08 08:38 37.43312 -8.09035 29084 ft 452 kts 118°
2026-05-08 08:38 37.41824 -8.05542 29350 ft 453 kts 118°
2026-05-08 08:38 37.40333 -8.02045 29616 ft 455 kts 118°
2026-05-08 08:38 37.38835 -7.98535 29884 ft 456 kts 118°
2026-05-08 08:39 37.37330 -7.95012 30134 ft 459 kts 118°
2026-05-08 08:39 37.35817 -7.91475 30396 ft 461 kts 118°
2026-05-08 08:39 37.34369 -7.88092 30635 ft 463 kts 118°
2026-05-08 08:39 37.32840 -7.84526 30906 ft 464 kts 118°
2026-05-08 08:40 37.31324 -7.80993 31138 ft 467 kts 118°
2026-05-08 08:40 37.29784 -7.77409 31453 ft 467 kts 118°
2026-05-08 08:40 37.28237 -7.73811 31690 ft 469 kts 118°
2026-05-08 08:40 37.26680 -7.70196 31892 ft 472 kts 118°
2026-05-08 08:41 37.25118 -7.66570 32144 ft 473 kts 118°
2026-05-08 08:41 37.23548 -7.62931 32369 ft 475 kts 118°
2026-05-08 08:41 37.21973 -7.59286 32604 ft 475 kts 118°
2026-05-08 08:41 37.20396 -7.55639 32804 ft 476 kts 118°
2026-05-08 08:42 37.18814 -7.51984 32971 ft 477 kts 118°
2026-05-08 08:42 37.17264 -7.48407 33144 ft 478 kts 118°
2026-05-08 08:42 37.15674 -7.44737 33276 ft 479 kts 118°
2026-05-08 08:42 37.14376 -7.40894 33362 ft 481 kts 107°
2026-05-08 08:43 37.13694 -7.36792 33483 ft 481 kts 96°
2026-05-08 08:43 37.13659 -7.32607 33620 ft 481 kts 84°
2026-05-08 08:43 37.14250 -7.28488 33765 ft 481 kts 75°
2026-05-08 08:43 37.15171 -7.24462 33911 ft 480 kts 73°
2026-05-08 08:44 37.17007 -7.16413 33999 ft 479 kts 75°
2026-05-08 08:44 37.18625 -7.08311 34001 ft 479 kts 76°
2026-05-08 08:45 37.20166 -7.00175 34001 ft 479 kts 76°
2026-05-08 08:45 37.21690 -6.92034 34000 ft 480 kts 77°
2026-05-08 08:46 37.23213 -6.83888 33998 ft 480 kts 77°
2026-05-08 08:46 37.24732 -6.75737 33999 ft 480 kts 77°
2026-05-08 08:47 37.26246 -6.67579 33998 ft 480 kts 77°
2026-05-08 08:47 37.27498 -6.60802 33999 ft 480 kts 77°
2026-05-08 08:48 37.29001 -6.52640 33999 ft 480 kts 77°
2026-05-08 08:48 37.30499 -6.44472 33999 ft 480 kts 77°
2026-05-08 08:49 37.31991 -6.36302 33999 ft 480 kts 77°
2026-05-08 08:49 37.33477 -6.28131 34001 ft 480 kts 77°
2026-05-08 08:50 37.34958 -6.19953 33998 ft 480 kts 77°
2026-05-08 08:50 37.36433 -6.11773 34000 ft 480 kts 77°
2026-05-08 08:51 37.37902 -6.03588 34001 ft 480 kts 77°
2026-05-08 08:51 37.39367 -5.95396 34003 ft 480 kts 77°
2026-05-08 08:52 37.40823 -5.87211 34002 ft 480 kts 77°
2026-05-08 08:52 37.41761 -5.78930 33992 ft 479 kts 92°
2026-05-08 08:53 37.41350 -5.74782 33989 ft 479 kts 103°
2026-05-08 08:53 37.40307 -5.70814 33992 ft 479 kts 115°
2026-05-08 08:53 37.37060 -5.63510 33992 ft 479 kts 120°
2026-05-08 08:54 37.33775 -5.56231 33998 ft 479 kts 120°
2026-05-08 08:54 37.30495 -5.48937 33998 ft 479 kts 120°
2026-05-08 08:55 37.27209 -5.41652 33998 ft 480 kts 120°
2026-05-08 08:55 37.23949 -5.34445 34000 ft 480 kts 120°
2026-05-08 08:56 37.20646 -5.27158 33999 ft 480 kts 120°
2026-05-08 08:56 37.17338 -5.19878 33998 ft 480 kts 120°
2026-05-08 08:57 37.14045 -5.12645 33992 ft 481 kts 120°
2026-05-08 08:57 37.10701 -5.05316 33992 ft 481 kts 120°
2026-05-08 08:58 37.07370 -4.98031 33992 ft 482 kts 120°
2026-05-08 08:58 37.04066 -4.90725 33990 ft 482 kts 118°
2026-05-08 08:59 37.00999 -4.83328 33999 ft 482 kts 117°
2026-05-08 08:59 36.97908 -4.75878 34002 ft 482 kts 118°
2026-05-08 09:00 36.94788 -4.68460 33995 ft 482 kts 118°
2026-05-08 09:00 36.91654 -4.61046 33991 ft 483 kts 118°
2026-05-08 09:01 36.88512 -4.53629 34005 ft 482 kts 118°
2026-05-08 09:01 36.85368 -4.46224 33998 ft 483 kts 118°
2026-05-08 09:02 36.82043 -4.38953 34001 ft 482 kts 125°
2026-05-08 09:02 36.77734 -4.32563 33993 ft 482 kts 136°
2026-05-08 09:03 36.72833 -4.26870 34010 ft 481 kts 137°
2026-05-08 09:03 36.67978 -4.21185 34000 ft 477 kts 137°
2026-05-08 09:04 36.63130 -4.15507 33998 ft 478 kts 137°
2026-05-08 09:04 36.58281 -4.09843 34001 ft 478 kts 137°
2026-05-08 09:05 36.53429 -4.04187 34001 ft 478 kts 137°
2026-05-08 09:05 36.48574 -3.98538 34000 ft 478 kts 137°
2026-05-08 09:06 36.43715 -3.92894 34000 ft 478 kts 137°
2026-05-08 09:06 36.38846 -3.87249 34001 ft 478 kts 137°
2026-05-08 09:07 36.34016 -3.81660 34000 ft 478 kts 137°
2026-05-08 09:07 36.29151 -3.76040 34000 ft 478 kts 137°
2026-05-08 09:08 36.24283 -3.70426 34000 ft 478 kts 137°
2026-05-08 09:08 36.19406 -3.64811 33999 ft 478 kts 137°
2026-05-08 09:09 36.14529 -3.59208 33999 ft 478 kts 137°
2026-05-08 09:09 36.09654 -3.53616 34001 ft 478 kts 137°
2026-05-08 09:10 36.04776 -3.48031 33998 ft 478 kts 137°
2026-05-08 09:10 35.99894 -3.42450 33998 ft 478 kts 137°
2026-05-08 09:11 35.95007 -3.36875 34001 ft 478 kts 137°
2026-05-08 09:11 35.90118 -3.31305 33998 ft 478 kts 137°
2026-05-08 09:12 35.85080 -3.25972 34000 ft 477 kts 147°
2026-05-08 09:12 35.79093 -3.22557 33995 ft 476 kts 165°
2026-05-08 09:13 35.72611 -3.20938 33994 ft 476 kts 169°
2026-05-08 09:13 35.66112 -3.19356 33999 ft 476 kts 169°
2026-05-08 09:14 35.59617 -3.17759 33999 ft 476 kts 169°
2026-05-08 09:14 35.53120 -3.16165 34000 ft 476 kts 169°
2026-05-08 09:15 35.46619 -3.14575 34002 ft 476 kts 169°
2026-05-08 09:15 35.40115 -3.12987 34002 ft 476 kts 169°
2026-05-08 09:16 35.33608 -3.11401 34003 ft 476 kts 169°
2026-05-08 09:16 35.27105 -3.09819 34002 ft 476 kts 169°
2026-05-08 09:17 35.20596 -3.08237 33992 ft 477 kts 169°
2026-05-08 09:17 35.14079 -3.06656 33999 ft 477 kts 169°
2026-05-08 09:18 35.07563 -3.05078 33996 ft 478 kts 169°
2026-05-08 09:18 35.01058 -3.03410 34000 ft 477 kts 165°
2026-05-08 09:19 34.94866 -3.00511 33997 ft 478 kts 153°
2026-05-08 09:19 34.89008 -2.96647 33991 ft 479 kts 152°
2026-05-08 09:20 34.83135 -2.92811 33995 ft 479 kts 152°
2026-05-08 09:20 34.77294 -2.89021 33996 ft 479 kts 152°
2026-05-08 09:21 34.71404 -2.85207 34000 ft 479 kts 152°
2026-05-08 09:22 34.54479 -2.72355 33995 ft 480 kts 133°
2026-05-08 09:23 34.52407 -2.69247 33990 ft 481 kts 125°
2026-05-08 09:23 34.48567 -2.62600 33986 ft 482 kts 125°
2026-05-08 09:24 34.44676 -2.55979 33987 ft 482 kts 126°
2026-05-08 09:24 34.40768 -2.49360 33990 ft 483 kts 126°
2026-05-08 09:25 34.36854 -2.42744 33992 ft 484 kts 126°
2026-05-08 09:25 34.32932 -2.36122 33990 ft 484 kts 126°
2026-05-08 09:26 34.29004 -2.29503 33990 ft 485 kts 126°
2026-05-08 09:26 34.25067 -2.22883 33997 ft 485 kts 126°
2026-05-08 09:27 34.21128 -2.16268 34000 ft 485 kts 126°
2026-05-08 09:27 34.17185 -2.09661 34000 ft 485 kts 126°
2026-05-08 09:28 34.13237 -2.03058 33999 ft 485 kts 126°
2026-05-08 09:28 34.09283 -1.96458 34001 ft 485 kts 126°
2026-05-08 09:29 34.05992 -1.90973 33995 ft 485 kts 126°
2026-05-08 09:29 34.02032 -1.84385 33996 ft 485 kts 126°
2026-05-08 09:30 33.98064 -1.77795 33998 ft 486 kts 126°
2026-05-08 09:30 33.94093 -1.71212 33995 ft 486 kts 126°
2026-05-08 09:31 33.90117 -1.64631 33997 ft 486 kts 126°
2026-05-08 09:31 33.85907 -1.58273 33996 ft 486 kts 130°
2026-05-08 09:32 33.81601 -1.52019 34000 ft 486 kts 130°
2026-05-08 09:32 33.77293 -1.45748 34001 ft 486 kts 130°
2026-05-08 09:33 33.72983 -1.39487 34004 ft 486 kts 130°
2026-05-08 09:33 33.68667 -1.33235 34002 ft 486 kts 130°
2026-05-08 09:34 33.64347 -1.26988 33999 ft 486 kts 130°
2026-05-08 09:34 33.60023 -1.20747 33999 ft 486 kts 130°
2026-05-08 09:35 33.55694 -1.14510 34000 ft 486 kts 130°
2026-05-08 09:35 33.51385 -1.08311 33999 ft 486 kts 130°
2026-05-08 09:36 33.47052 -1.02089 34000 ft 486 kts 130°
2026-05-08 09:36 33.42720 -0.95879 33999 ft 486 kts 130°
2026-05-08 09:37 33.38375 -0.89661 33999 ft 486 kts 130°
2026-05-08 09:37 33.34029 -0.83452 33994 ft 486 kts 130°
2026-05-08 09:38 33.29678 -0.77246 34000 ft 486 kts 130°
2026-05-08 09:38 33.25328 -0.71054 33999 ft 486 kts 130°
2026-05-08 09:39 33.20970 -0.64860 33998 ft 487 kts 130°
2026-05-08 09:39 33.16638 -0.58712 33997 ft 487 kts 130°
2026-05-08 09:40 33.12275 -0.52531 33999 ft 487 kts 130°
2026-05-08 09:40 33.07908 -0.46356 33999 ft 487 kts 130°
2026-05-08 09:41 33.03537 -0.40186 33993 ft 487 kts 130°
2026-05-08 09:41 32.99160 -0.34017 34002 ft 487 kts 130°
2026-05-08 09:42 32.94781 -0.27856 34005 ft 487 kts 130°
2026-05-08 09:42 32.90390 -0.21688 34018 ft 488 kts 130°
2026-05-08 09:42 32.88220 -0.18644 34244 ft 487 kts 130°
2026-05-08 09:43 32.86033 -0.15578 34398 ft 486 kts 130°
2026-05-08 09:43 32.83834 -0.12498 34537 ft 487 kts 130°
2026-05-08 09:43 32.81632 -0.09417 34613 ft 489 kts 130°
2026-05-08 09:43 32.79430 -0.06338 34743 ft 488 kts 130°
2026-05-08 09:44 32.77241 -0.03279 34959 ft 484 kts 130°
2026-05-08 09:44 32.72883 0.02801 34995 ft 484 kts 130°
2026-05-08 09:45 32.68527 0.08868 34992 ft 482 kts 130°
2026-05-08 09:45 32.64171 0.14927 35000 ft 483 kts 130°
2026-05-08 09:46 32.59814 0.20975 35000 ft 482 kts 131°
2026-05-08 09:46 32.55450 0.27024 35010 ft 483 kts 131°
2026-05-08 09:47 32.51103 0.33039 35011 ft 484 kts 131°
2026-05-08 09:47 32.46721 0.39095 35007 ft 484 kts 131°
2026-05-08 09:48 32.42340 0.45138 35014 ft 484 kts 131°
2026-05-08 09:48 32.37955 0.51177 35010 ft 484 kts 131°
2026-05-08 09:49 32.33562 0.57216 35016 ft 484 kts 131°
2026-05-08 09:49 32.29170 0.63245 35012 ft 483 kts 131°
2026-05-08 09:50 32.24770 0.69275 35014 ft 483 kts 131°
2026-05-08 09:50 32.20377 0.75285 35010 ft 483 kts 131°
2026-05-08 09:51 32.15985 0.81285 35012 ft 483 kts 131°
2026-05-08 09:51 32.11589 0.87280 35009 ft 482 kts 131°
2026-05-08 09:52 32.07193 0.93266 35008 ft 482 kts 131°
2026-05-08 09:52 32.02829 0.99198 35009 ft 482 kts 131°
2026-05-08 09:53 31.98436 1.05162 35009 ft 482 kts 131°
2026-05-08 09:53 31.94039 1.11121 35006 ft 481 kts 131°
2026-05-08 09:54 31.89640 1.17072 34999 ft 481 kts 132°
2026-05-08 09:54 31.84815 1.22510 35005 ft 480 kts 140°
2026-05-08 09:55 31.79772 1.27667 35004 ft 480 kts 139°
2026-05-08 09:55 31.74742 1.32846 35001 ft 480 kts 139°
2026-05-08 09:56 31.69711 1.38017 35007 ft 480 kts 139°
2026-05-08 09:56 31.64682 1.43176 34996 ft 480 kts 139°
2026-05-08 09:57 31.57241 1.51041 35003 ft 480 kts 133°
2026-05-08 09:57 31.52867 1.56963 34985 ft 480 kts 131°
2026-05-08 09:58 31.48500 1.62892 35000 ft 480 kts 131°
2026-05-08 09:58 31.44150 1.68770 35001 ft 480 kts 131°
2026-05-08 09:59 31.39742 1.74715 35001 ft 480 kts 131°
2026-05-08 09:59 31.35357 1.80621 34996 ft 480 kts 131°
2026-05-08 10:00 31.30970 1.86521 35004 ft 480 kts 131°
2026-05-08 10:00 31.26607 1.92380 34997 ft 480 kts 131°
2026-05-08 10:01 31.22213 1.98271 34991 ft 480 kts 131°
2026-05-08 10:01 31.17813 2.04161 35006 ft 480 kts 131°
2026-05-08 10:02 31.13416 2.10037 35005 ft 480 kts 131°
2026-05-08 10:02 31.09013 2.15913 35005 ft 480 kts 131°
2026-05-08 10:03 31.04614 2.21775 35003 ft 480 kts 131°
2026-05-08 10:03 31.00207 2.27637 34994 ft 480 kts 131°
2026-05-08 10:04 30.95825 2.33459 35003 ft 480 kts 131°
2026-05-08 10:04 30.91418 2.39304 35005 ft 480 kts 131°
2026-05-08 10:05 30.87010 2.45143 35004 ft 480 kts 131°
2026-05-08 10:05 30.82602 2.50972 35004 ft 480 kts 131°
2026-05-08 10:06 30.78187 2.56802 34997 ft 480 kts 131°
2026-05-08 10:06 30.73773 2.62622 35003 ft 480 kts 131°
2026-05-08 10:07 30.69352 2.68442 34996 ft 480 kts 131°
2026-05-08 10:07 30.64936 2.74247 34994 ft 480 kts 131°
2026-05-08 10:08 30.60517 2.80047 34995 ft 479 kts 131°
2026-05-08 10:08 30.56816 2.84908 35003 ft 479 kts 131°
2026-05-08 10:09 30.52974 2.91169 35001 ft 479 kts 123°
2026-05-08 10:09 30.49318 2.97638 35001 ft 479 kts 123°
2026-05-08 10:10 30.45634 3.04102 35002 ft 479 kts 123°
2026-05-08 10:10 30.41951 3.10545 35004 ft 479 kts 124°
2026-05-08 10:11 30.38265 3.16982 35004 ft 479 kts 124°
2026-05-08 10:11 30.34596 3.23379 35004 ft 479 kts 124°
2026-05-08 10:12 30.30901 3.29812 34997 ft 479 kts 124°
2026-05-08 10:12 30.27205 3.36238 35000 ft 479 kts 124°
2026-05-08 10:13 30.23509 3.42652 35003 ft 479 kts 124°
2026-05-08 10:13 30.19812 3.49059 35002 ft 479 kts 124°
2026-05-08 10:14 30.16108 3.55466 35005 ft 479 kts 124°
2026-05-08 10:14 30.12403 3.61866 35005 ft 479 kts 124°
2026-05-08 10:15 30.08694 3.68263 34996 ft 479 kts 124°
2026-05-08 10:15 30.05006 3.74612 35004 ft 479 kts 124°
2026-05-08 10:16 30.01111 3.80907 34983 ft 479 kts 128°
2026-05-08 10:16 29.97075 3.87013 34985 ft 479 kts 127°
2026-05-08 10:17 29.93062 3.93096 35003 ft 479 kts 127°